Weather History for Peru, IN

Change the Weather History Date:

Monday, February 4, 2013

  Actual Average Record
Temperature  
Mean Temperature 26 °F -  
Max Temperature 32 °F 34 °F 54 °F (2008)
Min Temperature 21 °F 21 °F -5 °F (2007)
Degree Days  
Heating Degree Days 38    
Moisture  
Dew Point 21 °F    
Average Humidity 87    
Maximum Humidity 100    
Minimum Humidity 69    
Precipitation  
Precipitation 0.01 in - - ()
Sea Level Pressure  
Sea Level Pressure 29.98 in    
Wind  
Wind Speed 8 mph (WSW)    
Max Wind Speed 14 mph    
Max Gust Speed -    
Visibility 7 miles    
Events Snow    
Averages and records for this station are not official NWS values.
T = Trace of Precipitation, MM = Missing Value Source: NWS Daily Summary

Daily Weather History Graph

Daily Weather History Graph

Search for Another Location

Airport:

Trip Planner

Search our weather history database for the weather conditions in past years. The results will help you decide how hot, cold, wet, or windy it might be!

Date:

Astronomy

Feb. 04, 2013 Rise Set
Actual Time 7:51 AM EST 6:06 PM EST
Civil Twilight 7:22 AM EST 6:35 PM EST
Nautical Twilight 6:49 AM EST 7:07 PM EST
Astronomical Twilight 6:17 AM EST 7:39 PM EST
Moon 2:26 AM EST (2/4) 12:29 PM EST (2/4)
Length of Visible Light 11h 12m
Length of Day
10h 15m
Last Quarter, 37% of the Moon is Illuminated
Feb 4
Last Quarter
Feb 10
New
Feb 17
First Quarter
Feb 25
Full
Mar 4
Last Quarter

Hourly Weather History & Observations

Time (EST) Temp. Windchill Dew Point Humidity Pressure Visibility Wind Dir Wind Speed Gust Speed Precip Events Conditions
12:55 AM 21.0 °F 10.6 °F 15.6 °F 80% 30.09 in 10.0 mi WSW 9.2 mph - N/A   Mostly Cloudy
1:21 AM 21.2 °F 10.1 °F 15.8 °F 80% 30.09 in 10.0 mi WSW 10.4 mph - N/A Snow Light Snow
1:38 AM 21.2 °F 10.9 °F 17.6 °F 86% 30.08 in 7.0 mi West 9.2 mph - N/A Snow Light Snow
1:43 AM 21.2 °F 10.9 °F 17.6 °F 86% 30.08 in 8.0 mi West 9.2 mph - N/A Snow Light Snow
1:55 AM 22.1 °F 11.3 °F 19.0 °F 88% 30.08 in 8.0 mi West 10.4 mph - 0.00 in Snow Light Snow
1:56 AM 23.0 °F 12.4 °F 19.4 °F 86% 30.08 in 8.0 mi West 10.4 mph - N/A Snow Light Snow
2:12 AM 23.0 °F 13.9 °F 19.4 °F 86% 30.08 in 4.0 mi West 8.1 mph - N/A Snow Light Snow
2:13 AM 23.0 °F 13.9 °F 19.4 °F 86% 30.08 in 4.0 mi West 8.1 mph - N/A Snow Light Snow
2:25 AM 21.2 °F 12.6 °F 19.4 °F 93% 30.07 in 4.0 mi West 6.9 mph - N/A Snow Light Snow
2:29 AM 21.2 °F 12.6 °F 19.4 °F 93% 30.07 in 4.0 mi West 6.9 mph - N/A Snow Light Snow
2:46 AM 21.2 °F 11.7 °F 19.4 °F 93% 30.07 in 2.5 mi West 8.1 mph - N/A Snow Light Snow
2:47 AM 21.2 °F 11.7 °F 19.4 °F 93% 30.07 in 2.5 mi West 8.1 mph - N/A Snow Light Snow
2:49 AM 21.2 °F 12.6 °F 19.4 °F 93% 30.07 in 2.0 mi West 6.9 mph - N/A Snow Light Snow
2:50 AM 21.2 °F 12.6 °F 19.4 °F 93% 30.07 in 2.0 mi West 6.9 mph - N/A Snow Light Snow
2:52 AM 21.2 °F 12.6 °F 19.4 °F 93% 30.07 in 2.0 mi West 6.9 mph - N/A Snow Light Snow
2:53 AM 21.2 °F 12.6 °F 19.4 °F 93% 30.07 in 1.8 mi West 6.9 mph - N/A Snow Light Snow
2:55 AM 21.7 °F 13.2 °F 20.3 °F 94% 30.07 in 1.8 mi WSW 6.9 mph - 0.00 in Snow Light Snow
2:57 AM 21.2 °F 12.6 °F 21.2 °F 100% 30.07 in 1.8 mi WSW 6.9 mph - N/A Snow Light Snow
3:04 AM 21.2 °F 13.6 °F 21.2 °F 100% 30.07 in 1.8 mi WSW 5.8 mph - N/A Snow Light Snow
3:07 AM 21.2 °F 12.6 °F 21.2 °F 100% 30.07 in 2.0 mi SW 6.9 mph - N/A Snow Light Snow
3:09 AM 21.2 °F 12.6 °F 21.2 °F 100% 30.08 in 2.0 mi WSW 6.9 mph - N/A Snow Light Snow
3:10 AM 21.2 °F 12.6 °F 21.2 °F 100% 30.08 in 2.5 mi WSW 6.9 mph - N/A Snow Light Snow
3:19 AM 21.2 °F 13.6 °F 21.2 °F 100% 30.07 in 2.5 mi SW 5.8 mph - N/A Snow Light Snow
3:27 AM 21.2 °F 13.6 °F 21.2 °F 100% 30.06 in 2.5 mi SW 5.8 mph - N/A Snow Light Snow
3:29 AM 21.2 °F 14.9 °F 21.2 °F 100% 30.06 in 2.5 mi SW 4.6 mph - N/A Snow Light Snow
3:30 AM 21.2 °F 13.6 °F 21.2 °F 100% 30.06 in 3.0 mi SSW 5.8 mph - N/A Snow Light Snow
3:35 AM 21.2 °F 12.6 °F 21.2 °F 100% 30.06 in 5.0 mi SW 6.9 mph - N/A Snow Light Snow
3:37 AM 21.2 °F 13.6 °F 21.2 °F 100% 30.06 in 6.0 mi SW 5.8 mph - N/A Snow Light Snow
3:46 AM 21.2 °F 13.6 °F 21.2 °F 100% 30.06 in 10.0 mi SSW 5.8 mph - N/A Snow Light Snow
3:51 AM 21.2 °F 14.9 °F 21.2 °F 100% 30.05 in 10.0 mi SSW 4.6 mph - N/A   Scattered Clouds
3:55 AM 21.7 °F 14.3 °F 20.3 °F 94% 30.05 in 10.0 mi South 5.8 mph - 0.00 in   Partly Cloudy
4:01 AM 21.2 °F 13.6 °F 19.4 °F 93% 30.05 in 10.0 mi South 5.8 mph - N/A   Partly Cloudy
5:55 AM 22.3 °F 13.0 °F 18.5 °F 85% 29.99 in 10.0 mi SSE 8.1 mph - N/A   Partly Cloudy
6:55 AM 22.8 °F 12.9 °F 18.0 °F 82% 29.97 in 10.0 mi South 9.2 mph - N/A   Mostly Cloudy
7:55 AM 23.2 °F 12.6 °F 18.3 °F 82% 29.95 in 10.0 mi SSE 10.4 mph - N/A   Clear
8:55 AM 23.7 °F 12.6 °F 18.7 °F 81% 29.92 in 10.0 mi SSE 11.5 mph - N/A   Clear
9:55 AM 25.7 °F 14.0 °F 19.0 °F 76% 29.91 in 10.0 mi SSE 13.8 mph - N/A   Partly Cloudy
10:30 AM 26.6 °F 19.1 °F 19.4 °F 74% 29.86 in 10.0 mi SSE 6.9 mph - N/A   Mostly Cloudy
10:55 AM 26.8 °F 19.3 °F 20.1 °F 76% 29.91 in 10.0 mi SSE 6.9 mph - N/A   Mostly Cloudy
11:55 AM 28.8 °F 22.6 °F 20.5 °F 71% 29.89 in 10.0 mi South 5.8 mph - N/A   Partly Cloudy
12:55 PM 29.7 °F 24.7 °F 21.4 °F 71% 29.86 in 10.0 mi SE 4.6 mph - N/A   Clear
12:56 PM 30.2 °F 25.4 °F 21.2 °F 69% 29.86 in 10.0 mi SE 4.6 mph - N/A   Clear
1:07 PM 30.2 °F 25.4 °F 21.2 °F 69% 29.86 in 10.0 mi South 4.6 mph - N/A   Partly Cloudy
1:55 PM 30.9 °F 24.3 °F 23.5 °F 74% 29.84 in 10.0 mi SSW 6.9 mph - 0.01 in   Overcast
2:55 PM 31.6 °F - 24.3 °F 74% 29.83 in 10.0 mi Calm Calm - N/A   Mostly Cloudy
3:55 PM 32.7 °F 29.6 °F 24.8 °F 73% 29.84 in 10.0 mi NW 3.5 mph - N/A   Overcast
4:55 PM 32.7 °F 28.3 °F 25.0 °F 73% 29.84 in 10.0 mi WNW 4.6 mph - N/A   Mostly Cloudy
5:27 PM 32.0 °F 24.8 °F 24.8 °F 75% 29.84 in 10.0 mi North 8.1 mph - N/A   Overcast
5:43 PM 32.0 °F 26.4 °F 24.8 °F 75% 29.79 in 10.0 mi NE 5.8 mph - N/A   Mostly Cloudy
5:55 PM 30.2 °F 24.3 °F 25.0 °F 81% 29.83 in 10.0 mi NNE 5.8 mph - N/A   Mostly Cloudy
6:55 PM 28.2 °F 21.0 °F 25.5 °F 90% 29.88 in 10.0 mi North 6.9 mph - N/A   Mostly Cloudy
7:48 PM 28.4 °F 20.4 °F 24.8 °F 86% 29.86 in 10.0 mi North 8.1 mph - N/A   Overcast
7:55 PM 27.9 °F 21.5 °F 25.3 °F 90% 29.90 in 10.0 mi North 5.8 mph - N/A   Overcast
8:55 PM 27.5 °F 17.4 °F 23.4 °F 84% 29.93 in 10.0 mi NNW 11.5 mph - N/A   Overcast
9:24 PM 26.6 °F 16.2 °F 23.0 °F 86% 29.93 in 10.0 mi North 11.5 mph - N/A   Overcast
9:48 PM 26.6 °F 18.2 °F 23.0 °F 86% 29.88 in 10.0 mi North 8.1 mph - N/A   Overcast
9:55 PM 26.4 °F 18.9 °F 23.0 °F 87% 29.92 in 10.0 mi North 6.9 mph - N/A   Overcast
10:29 PM 26.6 °F 19.1 °F 23.0 °F 86% 29.93 in 10.0 mi North 6.9 mph - N/A   Overcast
10:55 PM 25.5 °F 15.5 °F 22.3 °F 88% 29.94 in 10.0 mi North 10.4 mph - N/A   Overcast
11:01 PM 24.8 °F 15.3 °F 23.0 °F 93% 29.94 in 10.0 mi North 9.2 mph - N/A   Overcast
11:25 PM 24.8 °F 16.1 °F 21.2 °F 86% 29.95 in 10.0 mi North 8.1 mph - N/A   Overcast
11:55 PM 23.9 °F 15.8 °F 20.8 °F 88% 29.93 in 10.0 mi NNE 6.9 mph - N/A   Scattered Clouds